Radiation Dose at Monitoring Post of Fukushima Daini Nuclear Power Station
Date,Time,MP-1(microSv/h),MP-2(microSv/h),MP-3(microSv/h),MP-4(microSv/h),MP-5(microSv/h),MP-6(microSv/h),MP-7(microSv/h),Wind Direction,Wind Velocity(m/s),Rain
2017/10/11,00:00,0.338,0.212,0.347,0.330,0.315,0.173,0.103,north-northwest,4.9,No
2017/10/11,00:10,0.340,0.212,0.345,0.327,0.314,0.172,0.103,north-northwest,6.3,No
2017/10/11,00:20,0.338,0.213,0.348,0.330,0.316,0.173,0.103,north,6.3,No
2017/10/11,00:30,0.338,0.211,0.347,0.328,0.311,0.173,0.103,north,6.6,No
2017/10/11,00:40,0.338,0.213,0.346,0.328,0.317,0.171,0.102,north,6.8,No
2017/10/11,00:50,0.337,0.211,0.348,0.330,0.315,0.172,0.102,north,6.8,No
2017/10/11,01:00,0.339,0.212,0.344,0.326,0.315,0.172,0.102,north,6.2,No
2017/10/11,01:10,0.337,0.211,0.348,0.330,0.318,0.172,0.103,north,4.8,No
2017/10/11,01:20,0.339,0.211,0.345,0.326,0.313,0.172,0.101,north,4.4,No
2017/10/11,01:30,0.340,0.214,0.347,0.328,0.316,0.171,0.102,north,5.5,No
2017/10/11,01:40,0.337,0.213,0.347,0.328,0.313,0.173,0.102,north,5.1,No
2017/10/11,01:50,0.341,0.211,0.344,0.327,0.316,0.171,0.102,north,5.4,No
2017/10/11,02:00,0.338,0.212,0.347,0.329,0.314,0.172,0.102,north,6.8,No
2017/10/11,02:10,0.340,0.212,0.344,0.326,0.314,0.172,0.102,north,5.3,No
2017/10/11,02:20,0.338,0.211,0.348,0.331,0.314,0.171,0.102,north,2.3,No
2017/10/11,02:30,0.339,0.213,0.344,0.326,0.312,0.172,0.102,north,6.0,No
2017/10/11,02:40,0.340,0.210,0.346,0.327,0.314,0.171,0.101,north,5.7,No
2017/10/11,02:50,0.337,0.213,0.346,0.327,0.313,0.172,0.101,north,5.3,No
2017/10/11,03:00,0.340,0.211,0.346,0.326,0.314,0.172,0.101,north,4.8,No
2017/10/11,03:10,0.337,0.212,0.346,0.328,0.313,0.171,0.102,north-northeast,5.9,No
2017/10/11,03:20,0.339,0.212,0.344,0.324,0.314,0.172,0.102,northeast,5.1,No
2017/10/11,03:30,0.337,0.212,0.347,0.328,0.316,0.170,0.102,northeast,6.6,No
2017/10/11,03:40,0.338,0.211,0.343,0.326,0.313,0.172,0.100,northeast,5.2,No
2017/10/11,03:50,0.340,0.212,0.347,0.329,0.316,0.173,0.101,north-northeast,5.5,Yes
2017/10/11,04:00,0.336,0.210,0.345,0.327,0.312,0.171,0.101,northeast,5.7,No
2017/10/11,04:10,0.340,0.211,0.346,0.328,0.315,0.173,0.102,northeast,4.8,No
2017/10/11,04:20,0.337,0.212,0.347,0.328,0.314,0.171,0.102,northeast,4.2,Yes
2017/10/11,04:30,0.341,0.213,0.346,0.327,0.317,0.172,0.103,north-northeast,3.3,Yes
2017/10/11,04:40,0.336,0.211,0.347,0.329,0.315,0.172,0.102,northeast,4.5,Yes
2017/10/11,04:50,0.339,0.213,0.346,0.327,0.315,0.174,0.103,northeast,5.6,Yes
2017/10/11,05:00,0.338,0.213,0.350,0.330,0.316,0.173,0.103,northeast,5.1,No
2017/10/11,05:10,0.340,0.214,0.347,0.328,0.317,0.173,0.102,northeast,5.2,No
2017/10/11,05:20,0.339,0.212,0.350,0.331,0.316,0.175,0.103,north-northeast,4.8,No
2017/10/11,05:30,0.339,0.212,0.347,0.328,0.314,0.173,0.103,northeast,4.7,No
2017/10/11,05:40,0.340,0.213,0.348,0.329,0.315,0.174,0.103,north-northeast,5.4,No
2017/10/11,05:50,0.341,0.214,0.347,0.329,0.314,0.173,0.103,north-northeast,5.7,Yes
2017/10/11,06:00,0.340,0.214,0.349,0.329,0.317,0.174,0.104,north,3.3,Yes
2017/10/11,06:10,0.340,0.215,0.346,0.328,0.316,0.175,0.104,north-northeast,3.2,Yes
2017/10/11,06:20,0.341,0.216,0.349,0.328,0.317,0.176,0.104,north,2.8,Yes
2017/10/11,06:30,0.339,0.216,0.346,0.329,0.314,0.175,0.104,north,5.1,Yes
2017/10/11,06:40,0.341,0.216,0.348,0.328,0.316,0.176,0.105,north-northeast,5.9,Yes
2017/10/11,06:50,0.340,0.217,0.348,0.329,0.314,0.177,0.106,north-northeast,5.4,Yes
2017/10/11,07:00,0.341,0.216,0.348,0.328,0.318,0.178,0.106,north-northeast,5.4,Yes
2017/10/11,07:10,0.340,0.218,0.349,0.331,0.315,0.179,0.106,north-northeast,6.0,Yes
2017/10/11,07:20,0.342,0.218,0.350,0.330,0.320,0.180,0.107,north-northeast,6.9,Yes
2017/10/11,07:30,0.341,0.218,0.351,0.333,0.317,0.182,0.109,north,6.8,Yes
2017/10/11,07:40,0.344,0.219,0.349,0.331,0.319,0.181,0.110,north-northeast,6.2,Yes
2017/10/11,07:50,0.343,0.220,0.350,0.332,0.318,0.183,0.109,northeast,5.9,Yes
2017/10/11,08:00,0.343,0.221,0.350,0.332,0.321,0.183,0.110,northeast,5.1,Yes
2017/10/11,08:10,0.341,0.219,0.349,0.331,0.319,0.182,0.109,northeast,4.8,Yes
2017/10/11,08:20,0.345,0.219,0.349,0.331,0.321,0.181,0.110,northeast,4.0,Yes
2017/10/11,08:30,0.340,0.218,0.349,0.332,0.318,0.181,0.109,northeast,5.4,Yes
2017/10/11,08:40,0.345,0.219,0.348,0.329,0.320,0.179,0.109,north-northeast,5.6,Yes
2017/10/11,08:50,0.341,0.218,0.349,0.331,0.318,0.179,0.109,north,6.6,Yes
2017/10/11,09:00,0.342,0.218,0.348,0.328,0.319,0.178,0.110,north,5.9,Yes
2017/10/11,09:10,0.340,0.216,0.347,0.329,0.316,0.179,0.109,north,6.3,Yes
2017/10/11,09:20,0.343,0.218,0.349,0.327,0.318,0.177,0.108,north-northeast,4.9,Yes
2017/10/11,09:30,0.338,0.216,0.346,0.330,0.317,0.177,0.107,north-northeast,5.4,Yes
2017/10/11,09:40,0.340,0.216,0.348,0.327,0.316,0.177,0.106,north-northeast,5.4,Yes
2017/10/11,09:50,0.340,0.215,0.347,0.329,0.317,0.177,0.105,north-northeast,4.8,Yes
2017/10/11,10:00,0.341,0.216,0.347,0.325,0.316,0.177,0.106,north-northeast,5.5,Yes
2017/10/11,10:10,0.338,0.215,0.345,0.328,0.316,0.176,0.106,north-northeast,4.5,No
2017/10/11,10:20,0.340,0.214,0.346,0.325,0.314,0.176,0.104,-,-,Yes
2017/10/11,10:30,0.337,0.215,0.347,0.328,0.314,0.175,0.104,-,-,Yes
2017/10/11,10:40,0.341,0.213,0.343,0.325,0.313,0.175,0.104,-,-,Yes
2017/10/11,10:50,0.334,0.212,0.345,0.323,0.315,0.172,0.103,-,-,Yes
2017/10/11,11:00,0.339,0.212,0.341,0.324,0.312,0.173,0.103,-,-,No
2017/10/11,11:10,0.336,0.211,0.345,0.324,0.315,0.171,0.101,-,-,No
2017/10/11,11:20,0.336,0.212,0.342,0.325,0.311,0.172,0.102,-,-,Yes
2017/10/11,11:30,0.333,0.210,0.343,0.322,0.313,0.171,0.101,-,-,No
2017/10/11,11:40,0.337,0.211,0.342,0.325,0.310,0.171,0.100,-,-,No
2017/10/11,11:50,0.336,0.210,0.343,0.323,0.311,0.170,0.100,-,-,No
2017/10/11,12:00,0.335,0.209,0.342,0.323,0.312,0.170,0.101,-,-,No
2017/10/11,12:10,0.338,0.209,0.342,0.322,0.310,0.171,0.102,-,-,Yes
2017/10/11,12:20,0.334,0.208,0.343,0.322,0.312,0.170,0.101,-,-,No
2017/10/11,12:30,0.335,0.209,0.342,0.323,0.308,0.170,0.101,-,-,No
2017/10/11,12:40,0.334,0.210,0.343,0.323,0.312,0.170,0.100,-,-,No
2017/10/11,12:50,0.338,0.208,0.342,0.324,0.309,0.169,0.100,-,-,No
2017/10/11,13:00,0.334,0.209,0.344,0.321,0.313,0.170,0.101,-,-,No
2017/10/11,13:10,0.336,0.209,0.341,0.323,0.309,0.169,0.100,-,-,No
2017/10/11,13:20,0.334,0.210,0.344,0.320,0.311,0.170,0.101,-,-,No
2017/10/11,13:30,0.337,0.209,0.341,0.324,0.311,0.169,0.101,-,-,No
2017/10/11,13:40,0.336,0.209,0.342,0.322,0.309,0.170,0.101,-,-,No
2017/10/11,13:50,0.336,0.209,0.342,0.324,0.313,0.169,0.101,-,-,No
2017/10/11,14:00,0.336,0.210,0.342,0.321,0.310,0.169,0.101,-,-,No
2017/10/11,14:10,0.335,0.210,0.340,0.323,0.312,0.169,0.101,-,-,No
2017/10/11,14:20,0.337,0.210,-,0.323,0.310,0.169,0.100,-,-,No
2017/10/11,14:30,0.335,0.209,0.342,0.321,0.313,0.169,0.100,-,-,No
2017/10/11,14:40,0.337,0.209,0.340,0.323,0.310,0.168,0.101,-,-,No
2017/10/11,14:50,0.335,0.209,0.342,0.321,0.312,0.170,0.101,-,-,No
2017/10/11,15:00,0.335,0.210,0.341,0.323,0.313,0.169,0.100,north,3.1,No
2017/10/11,15:10,0.335,0.210,0.343,0.322,0.309,0.169,0.100,north,2.8,No
2017/10/11,15:20,0.337,0.209,0.343,0.323,-,0.169,0.100,north,1.9,No
2017/10/11,15:30,0.335,0.209,0.345,0.321,0.309,0.168,0.100,north-northeast,1.6,No
2017/10/11,15:40,0.336,0.208,0.342,0.323,0.310,0.170,0.100,north,1.4,No
2017/10/11,15:50,0.337,0.209,0.344,0.322,0.310,0.168,0.099,north-northeast,1.1,No
2017/10/11,16:00,0.333,0.209,0.341,0.324,0.311,0.169,0.099,north,0.9,No
2017/10/11,16:10,0.337,0.210,0.342,0.322,0.311,0.170,-,north-northeast,1.3,No
2017/10/11,16:20,0.334,0.209,0.341,0.323,0.310,0.169,0.100,north-northwest,0.6,No
2017/10/11,16:30,0.337,0.209,0.343,0.324,0.312,0.170,0.100,north-northwest,0.7,No
2017/10/11,16:40,0.334,0.209,0.342,0.321,0.310,0.168,0.101,north,0.7,No
2017/10/11,16:50,0.336,0.210,0.342,0.324,0.312,0.168,0.101,-,CALM,No
2017/10/11,17:00,0.335,0.208,0.344,0.320,0.308,0.169,0.100,-,CALM,No
2017/10/11,17:10,0.335,0.209,0.342,-,0.312,0.168,0.100,-,CALM,No
2017/10/11,17:20,0.336,0.209,0.344,0.321,0.310,0.169,0.101,-,CALM,No
2017/10/11,17:30,0.335,0.210,0.342,0.321,0.312,0.169,0.099,-,CALM,No
2017/10/11,17:40,0.337,0.210,0.343,0.321,0.311,0.168,0.100,-,CALM,No
2017/10/11,17:50,0.333,0.209,0.342,0.322,0.311,0.168,0.100,southeast,0.7,No
2017/10/11,18:00,0.337,0.209,0.344,0.323,0.312,-,0.100,-,CALM,No
2017/10/11,18:10,0.335,0.209,0.341,0.322,0.311,0.168,0.099,north,0.9,No
2017/10/11,18:20,0.337,0.209,0.344,0.324,0.312,0.167,0.100,north-northwest,1.5,No
2017/10/11,18:30,0.336,0.209,0.342,0.321,0.309,0.169,0.100,north,1.5,No
2017/10/11,18:40,0.334,0.209,0.344,0.325,0.313,0.169,0.101,north,2.6,No
2017/10/11,18:50,0.336,0.210,0.343,0.322,0.309,0.169,0.101,northwest,1.6,No
2017/10/11,19:00,0.337,0.209,0.344,0.324,0.313,0.169,0.100,northwest,1.3,No
2017/10/11,19:10,0.337,0.211,0.343,0.321,0.310,0.170,0.100,north,0.9,No
2017/10/11,19:20,0.334,0.210,0.342,0.323,0.311,0.168,0.100,-,CALM,No
2017/10/11,19:30,0.336,0.210,0.343,0.322,0.312,0.170,0.101,-,CALM,No
2017/10/11,19:40,0.335,0.209,0.343,0.322,0.311,0.169,0.100,-,CALM,No
2017/10/11,19:50,0.337,0.210,0.343,0.321,0.312,0.170,0.101,-,CALM,No
2017/10/11,20:00,0.335,0.210,0.342,0.324,0.312,0.169,0.100,-,CALM,No
2017/10/11,20:10,0.339,0.210,0.344,0.323,0.313,0.169,0.101,south,1.3,No
2017/10/11,20:20,0.336,0.211,0.341,0.321,0.310,0.170,0.100,south,1.9,No
2017/10/11,20:30,0.336,0.209,0.345,0.323,0.312,0.169,0.101,south,2.6,No
2017/10/11,20:40,0.337,0.210,0.343,0.322,0.309,0.170,0.101,south,2.1,No
2017/10/11,20:50,0.337,0.209,0.344,0.325,0.311,0.169,0.101,south-southwest,2.2,No
2017/10/11,21:00,0.337,0.210,0.341,0.320,0.311,0.169,0.101,south-southwest,0.9,No
2017/10/11,21:10,0.335,0.209,0.344,0.323,0.311,0.169,0.101,south-southwest,1.0,No
2017/10/11,21:20,0.337,0.210,0.343,0.322,0.313,0.169,0.101,south,2.0,No
2017/10/11,21:30,0.335,0.210,0.343,0.324,0.311,0.170,0.101,south-southwest,2.5,No
2017/10/11,21:40,0.337,0.210,0.341,0.321,0.313,0.170,0.101,south-southwest,2.7,No
2017/10/11,21:50,0.334,0.209,0.345,0.324,0.310,0.169,0.100,south-southwest,2.1,No
2017/10/11,22:00,0.336,0.209,0.341,0.323,0.313,0.168,0.101,south-southwest,2.1,No
2017/10/11,22:10,0.335,0.209,0.344,0.323,0.310,0.169,0.101,south,3.7,No
2017/10/11,22:20,0.335,0.209,0.342,0.322,0.314,0.169,0.101,south,6.2,No
2017/10/11,22:30,0.335,0.209,0.346,0.323,0.309,0.170,0.101,south,5.1,No
2017/10/11,22:40,0.335,0.209,0.341,0.323,0.313,0.170,0.101,south,3.6,No
2017/10/11,22:50,0.336,0.208,0.346,0.323,0.310,0.169,0.101,south,5.4,No
2017/10/11,23:00,0.335,0.209,0.342,0.322,0.313,0.169,0.101,south,5.5,No
2017/10/11,23:10,0.337,0.209,0.345,0.324,0.311,0.170,0.101,south,5.4,No
2017/10/11,23:20,0.336,0.211,0.343,0.323,0.311,0.169,0.101,south,6.3,No
2017/10/11,23:30,0.338,0.211,0.345,0.323,0.311,0.170,0.101,south,7.9,No
2017/10/11,23:40,0.335,0.211,0.344,0.325,0.312,0.169,0.101,south,5.4,No
2017/10/11,23:50,0.337,0.210,0.345,0.322,0.312,0.169,0.101,south,3.0,No
